QPF
0.00 0.00 0.01 0.01 0.00 0.00 0.03 0.04 0.04 0.03 0.03 0.02 0.02 0.01 0.00 0.00 0.00 0.01 0.01 0.01 0.01 0.01 0.02 0.03 0.03 0.02 0.01 0.00 0.00 0.01 0.01 0.01 0.01 0.01 0.01 0.01 0.02 0.02 0.01 0.01 0.01 0.01 0.01 0.01
0.00 0.00 0.01 0.03 0.01 0.00 0.01 0.01 0.02 0.01 0.02 0.02 0.02 0.01 0.00 0.00 0.01 0.01 0.01 0.02 0.02 0.02 0.02 0.03 0.02 0.01 0.01 0.01 0.00 0.01 0.01 0.01 0.01 0.01 0.01 0.01 0.02 0.02 0.02 0.01 0.02 0.02 0.03 0.02
0.01 0.01 0.02 0.02 0.01 0.00 0.00 0.00 0.00 0.01 0.02 0.03 0.02 0.02 0.01 0.01 0.01 0.01 0.02 0.02 0.02 0.02 0.03 0.02 0.02 0.01 0.01 0.01 0.01 0.01 0.01 0.01 0.01 0.01 0.02 0.02 0.03 0.03 0.03 0.03 0.02 0.03 0.02 0.02
0.02 0.03 0.02 0.02 0.01 0.00 0.00 0.00 0.00 0.01 0.04 0.04 0.04 0.04 0.02 0.01 0.01 0.01 0.00 0.00 0.01 0.01 0.02 0.01 0.01 0.01 0.01 0.01 0.01 0.01 0.01 0.01 0.02 0.02 0.03 0.03 0.03 0.04 0.05 0.05 0.04 0.04 0.04 0.04
0.01 0.02 0.01 0.01 0.01 0.01 0.01 0.00 0.00 0.01 0.04 0.04 0.02 0.05 0.02 0.00 0.00 0.00 0.00 0.00 0.00 0.00 0.01 0.02 0.02 0.02 0.01 0.01 0.01 0.02 0.02 0.02 0.01 0.01 0.02 0.02 0.02 0.03 0.04 0.05 0.04 0.04 0.04 0.05
0.01 0.01 0.01 0.01 0.00 0.00 0.00 0.01 0.00 0.00 0.01 0.01 0.01 0.03 0.03 0.01 0.00 0.00 0.00 0.00 0.00 0.00 0.01 0.02 0.03 0.02 0.02 0.01 0.02 0.02 0.02 0.02 0.01 0.01 0.01 0.01 0.01 0.01 0.02 0.02 0.02 0.02 0.03 0.04
0.01 0.01 0.01 0.01 0.00 0.00 0.01 0.01 0.00 0.00 0.01 0.01 0.01 0.01 0.02 0.01 0.01 0.02 0.01 0.01 0.01 0.01 0.01 0.03 0.02 0.01 0.02 0.02 0.02 0.01 0.01 0.02 0.02 0.01 0.01 0.02 0.02 0.02 0.03 0.03 0.03 0.03 0.04 0.05
0.01 0.01 0.01 0.00 0.00 0.01 0.01 0.01 0.00 0.01 0.01 0.01 0.01 0.01 0.01 0.01 0.01 0.02 0.02 0.01 0.01 0.01 0.01 0.02 0.01 0.01 0.02 0.02 0.01 0.01 0.02 0.02 0.02 0.02 0.02 0.01 0.02 0.02 0.03 0.04 0.04 0.05 0.05 0.05
0.02 0.01 0.01 0.00 0.00 0.00 0.01 0.00 0.00 0.01 0.02 0.01 0.01 0.01 0.01 0.01 0.01 0.01 0.02 0.03 0.04 0.03 0.02 0.01 0.01 0.01 0.02 0.02 0.01 0.02 0.02 0.03 0.03 0.03 0.02 0.02 0.02 0.03 0.04 0.04 0.04 0.04 0.04 0.04
0.01 0.01 0.00 0.00 0.00 0.01 0.01 0.01 0.01 0.01 0.01 0.01 0.01 0.01 0.01 0.01 0.01 0.01 0.01 0.02 0.03 0.03 0.02 0.02 0.02 0.02 0.02 0.02 0.02 0.02 0.02 0.02 0.02 0.03 0.03 0.03 0.03 0.03 0.03 0.03 0.03 0.03 0.04 0.03
0.01 0.01 0.01 0.01 0.01 0.01 0.01 0.01 0.01 0.01 0.01 0.02 0.02 0.01 0.00 0.00 0.00 0.01 0.01 0.01 0.02 0.02 0.03 0.03 0.03 0.02 0.02 0.01 0.01 0.02 0.02 0.01 0.02 0.02 0.02 0.03 0.03 0.02 0.02 0.02 0.02 0.03 0.03 0.03
0.01 0.01 0.01 0.01 0.01 0.01 0.01 0.02 0.01 0.01 0.01 0.02 0.02 0.01 0.01 0.01 0.02 0.02 0.02 0.03 0.04 0.04 0.04 0.04 0.04 0.02 0.02 0.02 0.02 0.02 0.02 0.01 0.01 0.02 0.02 0.02 0.03 0.02 0.01 0.01 0.00 0.00 0.01 0.01
0.01 0.00 0.01 0.01 0.01 0.01 0.01 0.01 0.01 0.01 0.01 0.01 0.01 0.01 0.02 0.02 0.03 0.03 0.03 0.04 0.03 0.03 0.03 0.03 0.03 0.02 0.02 0.02 0.02 0.02 0.02 0.01 0.01 0.01 0.01 0.02 0.02 0.02 0.02 0.01 0.01 0.01 0.00 0.00
0.01 0.01 0.01 0.01 0.01 0.01 0.01 0.01 0.01 0.01 0.01 0.01 0.02 0.03 0.04 0.04 0.03 0.03 0.03 0.04 0.03 0.02 0.03 0.03 0.02 0.02 0.03 0.03 0.03 0.03 0.02 0.01 0.01 0.01 0.01 0.01 0.01 0.02 0.02 0.03 0.03 0.02 0.01 0.01
0.01 0.01 0.01 0.01 0.01 0.01 0.01 0.01 0.01 0.01 0.01 0.02 0.03 0.05 0.05 0.05 0.04 0.02 0.02 0.03 0.02 0.02 0.03 0.02 0.02 0.02 0.03 0.03 0.03 0.04 0.03 0.02 0.01 0.01 0.01 0.01 0.01 0.01 0.01 0.02 0.02 0.03 0.03 0.04
0.01 0.01 0.01 0.01 0.01 0.01 0.01 0.02 0.02 0.02 0.03 0.04 0.06 0.07 0.05 0.04 0.03 0.02 0.02 0.03 0.03 0.04 0.03 0.03 0.03 0.03 0.04 0.04 0.04 0.04 0.04 0.02 0.02 0.02 0.01 0.01 0.01 0.01 0.01 0.02 0.02 0.03 0.04 0.04
0.02 0.02 0.01 0.01 0.01 0.01 0.01 0.02 0.04 0.04 0.04 0.05 0.09 0.08 0.05 0.04 0.03 0.02 0.03 0.03 0.04 0.03 0.03 0.03 0.03 0.03 0.03 0.04 0.03 0.03 0.03 0.02 0.03 0.02 0.01 0.02 0.02 0.02 0.02 0.03 0.03 0.03 0.04 0.03
0.01 0.02 0.02 0.02 0.01 0.01 0.02 0.02 0.03 0.03 0.04 0.05 0.06 0.06 0.05 0.04 0.03 0.03 0.03 0.03 0.03 0.03 0.02 0.01 0.02 0.02 0.02 0.03 0.03 0.03 0.02 0.02 0.02 0.02 0.02 0.02 0.02 0.02 0.03 0.03 0.03 0.03 0.03 0.03
0.02 0.02 0.02 0.03 0.02 0.01 0.01 0.02 0.02 0.03 0.03 0.05 0.06 0.06 0.06 0.05 0.04 0.03 0.03 0.04 0.04 0.03 0.02 0.01 0.01 0.01 0.01 0.01 0.02 0.02 0.02 0.01 0.01 0.02 0.02 0.03 0.03 0.02 0.02 0.03 0.03 0.04 0.03 0.03
0.01 0.01 0.01 0.01 0.01 0.01 0.01 0.02 0.02 0.02 0.02 0.03 0.05 0.05 0.05 0.04 0.04 0.04 0.04 0.04 0.04 0.03 0.02 0.02 0.02 0.02 0.01 0.01 0.01 0.01 0.01 0.01 0.02 0.02 0.02 0.03 0.04 0.04 0.03 0.03 0.03 0.03 0.04 0.05
0.01 0.01 0.01 0.02 0.02 0.02 0.02 0.01 0.01 0.01 0.01 0.03 0.03 0.03 0.04 0.04 0.04 0.04 0.04 0.04 0.04 0.04 0.04 0.04 0.02 0.02 0.02 0.02 0.01 0.01 0.01 0.02 0.02 0.02 0.02 0.03 0.04 0.04 0.03 0.03 0.03 0.03 0.04 0.05
0.02 0.01 0.01 0.02 0.02 0.02 0.01 0.01 0.01 0.01 0.02 0.02 0.03 0.03 0.03 0.05 0.06 0.06 0.05 0.05 0.04 0.04 0.04 0.03 0.02 0.01 0.01 0.01 0.01 0.01 0.02 0.03 0.03 0.02 0.03 0.04 0.04 0.04 0.03 0.03 0.03 0.03 0.04 0.04
0.02 0.01 0.02 0.03 0.03 0.03 0.02 0.02 0.02 0.02 0.02 0.03 0.03 0.03 0.04 0.05 0.06 0.06 0.05 0.04 0.04 0.03 0.02 0.02 0.02 0.01 0.01 0.01 0.01 0.02 0.02 0.03 0.03 0.03 0.03 0.03 0.03 0.03 0.03 0.03 0.03 0.03 0.03 0.04
0.02 0.01 0.02 0.02 0.03 0.04 0.03 0.02 0.02 0.02 0.03 0.03 0.04 0.03 0.04 0.04 0.05 0.04 0.03 0.03 0.03 0.02 0.01 0.01 0.01 0.01 0.01 0.02 0.02 0.02 0.02 0.02 0.03 0.03 0.03 0.04 0.04 0.05 0.05 0.05 0.04 0.04 0.03 0.04
0.02 0.02 0.02 0.02 0.02 0.03 0.05 0.04 0.04 0.04 0.04 0.04 0.04 0.03 0.03 0.03 0.03 0.03 0.03 0.02 0.02 0.01 0.02 0.01 0.00 0.00 0.01 0.03 0.03 0.04 0.03 0.04 0.04 0.04 0.04 0.04 0.04 0.06 0.06 0.06 0.05 0.05 0.04 0.04
0.02 0.02 0.03 0.03 0.02 0.03 0.02 0.03 0.03 0.04 0.04 0.04 0.03 0.02 0.01 0.01 0.02 0.02 0.02 0.01 0.01 0.01 0.02 0.02 0.01 0.01 0.02 0.02 0.03 0.05 0.05 0.04 0.04 0.04 0.04 0.04 0.04 0.05 0.05 0.04 0.04 0.04 0.04 0.04
0.03 0.03 0.03 0.04 0.04 0.03 0.02 0.03 0.03 0.02 0.02 0.02 0.01 0.01 0.01 0.01 0.01 0.01 0.02 0.01 0.01 0.02 0.02 0.02 0.02 0.02 0.02 0.02 0.03 0.03 0.04 0.04 0.04 0.04 0.04 0.04 0.04 0.04 0.03 0.04 0.04 0.04 0.03 0.03
MSLP
1004.03 1004.15 1004.24 1004.28 1004.29 1004.28 1004.27 1004.26 1004.28 1004.34 1004.44 1004.59 1004.80 1005.06 1005.38 1005.75 1006.16 1006.62 1007.10 1007.59 1008.08 1008.55 1008.98 1009.38 1009.75 1010.08 1010.39 1010.68 1010.96 1011.23 1011.50 1011.74 1011.97 1012.16 1012.30 1012.40 1012.45 1012.46 1012.42 1012.35 1012.26 1012.16 1012.06 1011.97
1004.39 1004.45 1004.42 1004.30 1004.11 1003.88 1003.67 1003.51 1003.42 1003.44 1003.57 1003.81 1004.14 1004.55 1005.02 1005.52 1006.03 1006.53 1007.01 1007.47 1007.91 1008.31 1008.69 1009.05 1009.39 1009.72 1010.04 1010.36 1010.67 1010.97 1011.26 1011.52 1011.75 1011.95 1012.09 1012.18 1012.22 1012.20 1012.14 1012.04 1011.91 1011.76 1011.61 1011.46
1004.70 1004.70 1004.56 1004.29 1003.94 1003.54 1003.17 1002.89 1002.73 1002.73 1002.90 1003.23 1003.69 1004.24 1004.84 1005.45 1006.04 1006.58 1007.07 1007.50 1007.87 1008.22 1008.54 1008.86 1009.18 1009.51 1009.86 1010.22 1010.57 1010.92 1011.24 1011.54 1011.79 1011.98 1012.12 1012.19 1012.21 1012.16 1012.05 1011.91 1011.73 1011.53 1011.32 1011.12
1004.87 1004.80 1004.57 1004.19 1003.72 1003.20 1002.74 1002.38 1002.20 1002.22 1002.45 1002.87 1003.46 1004.14 1004.86 1005.57 1006.22 1006.79 1007.27 1007.66 1007.98 1008.26 1008.53 1008.81 1009.11 1009.45 1009.82 1010.22 1010.63 1011.02 1011.39 1011.71 1011.98 1012.18 1012.30 1012.35 1012.33 1012.24 1012.09 1011.90 1011.67 1011.43 1011.18 1010.94
1004.82 1004.68 1004.38 1003.93 1003.39 1002.82 1002.32 1001.95 1001.79 1001.87 1002.19 1002.72 1003.42 1004.22 1005.05 1005.84 1006.54 1007.12 1007.58 1007.93 1008.19 1008.41 1008.63 1008.87 1009.15 1009.49 1009.88 1010.31 1010.76 1011.20 1011.60 1011.95 1012.23 1012.43 1012.53 1012.55 1012.49 1012.35 1012.17 1011.93 1011.67 1011.40 1011.13 1010.87
1004.54 1004.33 1003.97 1003.48 1002.92 1002.36 1001.89 1001.58 1001.49 1001.66 1002.08 1002.73 1003.55 1004.45 1005.37 1006.22 1006.95 1007.54 1007.98 1008.29 1008.50 1008.66 1008.82 1009.01 1009.27 1009.60 1010.00 1010.45 1010.92 1011.39 1011.81 1012.17 1012.45 1012.62 1012.70 1012.68 1012.58 1012.41 1012.19 1011.93 1011.65 1011.37 1011.11 1010.85
1004.06 1003.77 1003.37 1002.88 1002.35 1001.85 1001.46 1001.25 1001.28 1001.57 1002.11 1002.88 1003.80 1004.79 1005.77 1006.67 1007.42 1008.01 1008.43 1008.70 1008.86 1008.98 1009.08 1009.24 1009.46 1009.77 1010.16 1010.61 1011.09 1011.55 1011.97 1012.32 1012.57 1012.72 1012.75 1012.69 1012.55 1012.34 1012.09 1011.82 1011.55 1011.29 1011.05 1010.84
1003.44 1003.10 1002.68 1002.22 1001.76 1001.36 1001.09 1001.02 1001.19 1001.61 1002.28 1003.14 1004.15 1005.21 1006.23 1007.15 1007.92 1008.50 1008.90 1009.14 1009.27 1009.34 1009.41 1009.53 1009.72 1010.00 1010.36 1010.79 1011.24 1011.68 1012.07 1012.38 1012.59 1012.69 1012.67 1012.56 1012.37 1012.13 1011.86 1011.59 1011.34 1011.11 1010.92 1010.77
1002.82 1002.43 1002.03 1001.63 1001.27 1001.00 1000.88 1000.95 1001.26 1001.81 1002.58 1003.53 1004.59 1005.68 1006.72 1007.65 1008.41 1008.98 1009.37 1009.59 1009.70 1009.75 1009.79 1009.88 1010.04 1010.29 1010.61 1011.00 1011.40 1011.79 1012.13 1012.38 1012.52 1012.56 1012.48 1012.31 1012.08 1011.80 1011.52 1011.26 1011.03 1010.84 1010.72 1010.63
1002.31 1001.91 1001.55 1001.23 1000.99 1000.87 1000.90 1001.13 1001.57 1002.22 1003.07 1004.06 1005.14 1006.22 1007.25 1008.16 1008.90 1009.46 1009.83 1010.05 1010.15 1010.19 1010.23 1010.30 1010.43 1010.65 1010.93 1011.25 1011.60 1011.92 1012.18 1012.35 1012.42 1012.38 1012.24 1012.01 1011.73 1011.42 1011.12 1010.86 1010.65 1010.51 1010.43 1010.41
1002.00 1001.64 1001.35 1001.14 1001.03 1001.06 1001.23 1001.59 1002.13 1002.86 1003.73 1004.73 1005.79 1006.84 1007.82 1008.68 1009.39 1009.93 1010.29 1010.51 1010.63 1010.68 1010.72 1010.79 1010.90 1011.07 1011.31 1011.57 1011.84 1012.07 1012.25 1012.34 1012.33 1012.21 1012.00 1011.71 1011.39 1011.05 1010.73 1010.47 1010.27 1010.15 1010.11 1010.13
1001.95 1001.66 1001.47 1001.38 1001.41 1001.58 1001.88 1002.34 1002.95 1003.71 1004.58 1005.54 1006.54 1007.52 1008.43 1009.23 1009.89 1010.40 1010.76 1010.99 1011.12 1011.19 1011.24 1011.31 1011.41 1011.55 1011.73 1011.93 1012.12 1012.27 1012.36 1012.37 1012.28 1012.09 1011.82 1011.48 1011.11 1010.75 1010.41 1010.13 1009.93 1009.82 1009.78 1009.81
1002.11 1001.92 1001.84 1001.89 1002.06 1002.35 1002.77 1003.31 1003.96 1004.72 1005.56 1006.45 1007.36 1008.24 1009.06 1009.79 1010.39 1010.87 1011.21 1011.45 1011.60 1011.70 1011.77 1011.85 1011.93 1012.04 1012.17 1012.31 1012.42 1012.49 1012.50 1012.43 1012.27 1012.03 1011.71 1011.34 1010.94 1010.55 1010.20 1009.90 1009.68 1009.54 1009.47 1009.48
1002.40 1002.32 1002.38 1002.56 1002.86 1003.27 1003.78 1004.38 1005.05 1005.79 1006.58 1007.39 1008.20 1008.98 1009.70 1010.34 1010.88 1011.32 1011.65 1011.89 1012.06 1012.18 1012.27 1012.34 1012.41 1012.49 1012.57 1012.64 1012.68 1012.68 1012.63 1012.50 1012.29 1012.01 1011.67 1011.28 1010.87 1010.47 1010.09 1009.77 1009.51 1009.32 1009.21 1009.16
1002.70 1002.75 1002.94 1003.25 1003.68 1004.19 1004.78 1005.42 1006.11 1006.82 1007.55 1008.28 1008.99 1009.67 1010.29 1010.84 1011.32 1011.72 1012.03 1012.27 1012.45 1012.57 1012.67 1012.73 1012.79 1012.83 1012.86 1012.87 1012.86 1012.80 1012.69 1012.53 1012.30 1012.01 1011.66 1011.27 1010.87 1010.46 1010.07 1009.72 1009.42 1009.18 1009.00 1008.87
1002.92 1003.09 1003.41 1003.84 1004.38 1004.99 1005.64 1006.33 1007.02 1007.72 1008.39 1009.05 1009.67 1010.26 1010.79 1011.27 1011.68 1012.04 1012.33 1012.55 1012.72 1012.84 1012.92 1012.98 1013.00 1013.01 1013.00 1012.96 1012.90 1012.80 1012.66 1012.48 1012.24 1011.96 1011.63 1011.27 1010.88 1010.48 1010.09 1009.72 1009.38 1009.08 1008.83 1008.62
1003.02 1003.30 1003.73 1004.27 1004.91 1005.59 1006.31 1007.03 1007.74 1008.41 1009.05 1009.65 1010.20 1010.71 1011.16 1011.57 1011.93 1012.23 1012.49 1012.69 1012.84 1012.94 1013.01 1013.03 1013.03 1013.00 1012.95 1012.88 1012.78 1012.66 1012.51 1012.32 1012.10 1011.84 1011.55 1011.22 1010.86 1010.49 1010.10 1009.72 1009.35 1009.01 1008.69 1008.40
1003.03 1003.40 1003.91 1004.55 1005.26 1006.01 1006.78 1007.53 1008.24 1008.90 1009.51 1010.06 1010.55 1010.99 1011.38 1011.72 1012.02 1012.27 1012.49 1012.65 1012.77 1012.85 1012.89 1012.89 1012.86 1012.80 1012.72 1012.62 1012.50 1012.36 1012.21 1012.04 1011.85 1011.63 1011.37 1011.09 1010.77 1010.43 1010.07 1009.69 1009.30 1008.92 1008.56 1008.22
1003.01 1003.45 1004.03 1004.73 1005.49 1006.29 1007.08 1007.85 1008.56 1009.21 1009.78 1010.29 1010.72 1011.10 1011.43 1011.71 1011.94 1012.14 1012.31 1012.43 1012.52 1012.56 1012.58 1012.55 1012.50 1012.42 1012.31 1012.20 1012.07 1011.94 1011.80 1011.65 1011.49 1011.31 1011.10 1010.86 1010.59 1010.29 1009.95 1009.59 1009.20 1008.81 1008.43 1008.06
1003.07 1003.56 1004.19 1004.91 1005.70 1006.51 1007.31 1008.07 1008.76 1009.37 1009.91 1010.36 1010.74 1011.05 1011.31 1011.53 1011.70 1011.84 1011.96 1012.04 1012.09 1012.11 1012.10 1012.06 1011.99 1011.90 1011.80 1011.68 1011.56 1011.44 1011.31 1011.19 1011.05 1010.90 1010.74 1010.54 1010.31 1010.05 1009.74 1009.41 1009.04 1008.67 1008.29 1007.92
1003.30 1003.82 1004.47 1005.20 1005.98 1006.77 1007.53 1008.25 1008.90 1009.46 1009.93 1010.32 1010.63 1010.87 1011.06 1011.20 1011.32 1011.40 1011.47 1011.51 1011.53 1011.53 1011.51 1011.46 1011.40 1011.32 1011.22 1011.12 1011.01 1010.90 1010.79 1010.68 1010.57 1010.44 1010.31 1010.14 1009.95 1009.72 1009.46 1009.16 1008.84 1008.49 1008.15 1007.81
1003.73 1004.27 1004.90 1005.61 1006.35 1007.08 1007.79 1008.43 1009.00 1009.48 1009.88 1010.18 1010.41 1010.58 1010.69 1010.77 1010.82 1010.85 1010.88 1010.89 1010.89 1010.89 1010.87 1010.83 1010.78 1010.72 1010.64 1010.56 1010.47 1010.37 1010.27 1010.17 1010.07 1009.96 1009.83 1009.69 1009.53 1009.34 1009.11 1008.86 1008.59 1008.30 1008.01 1007.73
1004.35 1004.87 1005.47 1006.12 1006.79 1007.44 1008.05 1008.60 1009.07 1009.45 1009.75 1009.97 1010.11 1010.19 1010.24 1010.25 1010.25 1010.25 1010.24 1010.24 1010.24 1010.24 1010.24 1010.23 1010.20 1010.17 1010.11 1010.05 1009.97 1009.88 1009.79 1009.68 1009.58 1009.46 1009.35 1009.21 1009.07 1008.91 1008.73 1008.54 1008.33 1008.11 1007.89 1007.68
1005.06 1005.56 1006.11 1006.67 1007.24 1007.79 1008.28 1008.72 1009.07 1009.35 1009.55 1009.67 1009.73 1009.75 1009.73 1009.70 1009.67 1009.63 1009.62 1009.62 1009.63 1009.65 1009.67 1009.69 1009.69 1009.69 1009.66 1009.61 1009.54 1009.45 1009.34 1009.23 1009.11 1008.98 1008.86 1008.73 1008.61 1008.48 1008.35 1008.21 1008.07 1007.94 1007.80 1007.67
1005.77 1006.22 1006.69 1007.16 1007.62 1008.05 1008.43 1008.74 1008.99 1009.16 1009.27 1009.32 1009.32 1009.28 1009.22 1009.16 1009.11 1009.07 1009.06 1009.07 1009.10 1009.15 1009.20 1009.25 1009.28 1009.30 1009.28 1009.24 1009.17 1009.07 1008.94 1008.81 1008.67 1008.52 1008.39 1008.26 1008.15 1008.06 1007.98 1007.91 1007.85 1007.80 1007.75 1007.71
1006.36 1006.75 1007.13 1007.51 1007.86 1008.17 1008.43 1008.64 1008.80 1008.89 1008.93 1008.93 1008.89 1008.82 1008.75 1008.69 1008.64 1008.61 1008.62 1008.65 1008.70 1008.77 1008.84 1008.91 1008.96 1008.99 1008.98 1008.93 1008.84 1008.72 1008.58 1008.42 1008.25 1008.09 1007.95 1007.83 1007.74 1007.68 1007.66 1007.66 1007.68 1007.71 1007.75 1007.79
1006.78 1007.09 1007.38 1007.66 1007.91 1008.13 1008.30 1008.43 1008.52 1008.57 1008.57 1008.54 1008.49 1008.43 1008.37 1008.32 1008.29 1008.28 1008.30 1008.35 1008.43 1008.51 1008.59 1008.67 1008.72 1008.74 1008.72 1008.65 1008.54 1008.40 1008.23 1008.04 1007.86 1007.69 1007.54 1007.44 1007.38 1007.36 1007.39 1007.47 1007.57 1007.68 1007.81 1007.92
Thickness
5802 5814 5818 5816 5819 5822 5816 5814 5804 5803 5806 5810 5815 5817 5822 5824 5824 5822 5819 5818 5816 5814 5812 5810 5808 5806 5805 5802 5801 5799 5794 5790 5787 5785 5782 5779 5775 5773 5770 5767 5766 5763 5760 5758
5786 5801 5807 5806 5813 5817 5818 5817 5813 5809 5804 5817 5818 5818 5815 5815 5814 5812 5810 5808 5808 5807 5805 5803 5801 5800 5799 5797 5795 5793 5789 5786 5784 5781 5777 5774 5771 5769 5766 5763 5761 5758 5756 5753
5765 5787 5790 5785 5806 5810 5811 5816 5809 5794 5797 5809 5805 5802 5804 5805 5804 5803 5802 5802 5801 5799 5798 5796 5795 5795 5792 5791 5790 5786 5783 5780 5778 5775 5771 5769 5768 5764 5760 5758 5755 5752 5750 5748
5758 5765 5751 5786 5818 5816 5807 5805 5807 5800 5799 5799 5798 5796 5800 5801 5798 5796 5796 5794 5795 5794 5794 5793 5791 5790 5788 5786 5782 5779 5776 5774 5772 5769 5766 5763 5761 5758 5755 5753 5750 5747 5745 5743
5750 5749 5761 5783 5800 5803 5793 5788 5800 5794 5791 5791 5793 5791 5789 5792 5791 5788 5789 5788 5789 5789 5788 5786 5783 5782 5780 5777 5774 5771 5768 5766 5765 5763 5759 5756 5753 5751 5749 5746 5744 5742 5740 5738
5748 5740 5740 5765 5791 5803 5791 5769 5788 5788 5782 5781 5782 5767 5766 5780 5782 5780 5780 5781 5782 5782 5781 5776 5775 5774 5770 5768 5765 5762 5760 5759 5758 5756 5752 5749 5748 5745 5743 5740 5738 5736 5734 5732
5741 5739 5751 5771 5785 5786 5756 5752 5776 5779 5776 5774 5769 5765 5768 5772 5772 5771 5769 5769 5772 5771 5769 5767 5767 5764 5760 5757 5754 5754 5754 5752 5750 5747 5745 5743 5741 5738 5736 5733 5731 5729 5727 5726
5736 5729 5734 5767 5770 5755 5750 5765 5769 5769 5770 5767 5765 5765 5764 5762 5759 5759 5758 5758 5760 5758 5757 5758 5758 5754 5749 5746 5747 5746 5744 5742 5740 5738 5737 5737 5733 5730 5728 5725 5722 5721 5719 5717
5735 5733 5747 5758 5756 5757 5761 5757 5759 5760 5761 5759 5755 5754 5753 5751 5750 5749 5750 5749 5749 5747 5746 5746 5747 5744 5739 5738 5738 5736 5733 5731 5730 5729 5728 5727 5724 5721 5719 5717 5714 5712 5710 5708
5731 5735 5743 5748 5749 5751 5752 5751 5753 5753 5752 5750 5746 5745 5743 5741 5740 5740 5740 5740 5739 5737 5735 5733 5734 5734 5731 5730 5728 5725 5722 5721 5720 5719 5718 5717 5716 5714 5711 5708 5706 5704 5701 5700
5721 5728 5734 5736 5738 5740 5742 5744 5744 5743 5742 5740 5738 5736 5735 5732 5731 5730 5730 5731 5729 5726 5723 5723 5723 5722 5722 5720 5717 5714 5712 5711 5710 5710 5709 5707 5706 5704 5703 5701 5699 5694 5693 5691
5712 5721 5721 5722 5730 5734 5732 5731 5731 5730 5729 5730 5729 5726 5726 5724 5723 5721 5720 5720 5717 5716 5714 5712 5711 5711 5711 5710 5707 5703 5701 5700 5700 5700 5700 5699 5697 5695 5693 5692 5689 5686 5683 5680
5719 5723 5723 5723 5724 5725 5723 5723 5723 5721 5720 5718 5719 5718 5716 5714 5712 5711 5710 5709 5707 5705 5704 5703 5702 5701 5702 5700 5698 5694 5691 5690 5691 5690 5689 5689 5688 5686 5683 5681 5679 5677 5674 5671
5715 5713 5709 5711 5712 5715 5715 5715 5714 5713 5712 5711 5710 5708 5706 5704 5702 5699 5698 5698 5697 5695 5693 5693 5692 5691 5691 5690 5688 5685 5683 5682 5681 5681 5680 5680 5679 5677 5675 5673 5670 5669 5666 5661
5704 5705 5703 5705 5706 5706 5706 5706 5702 5701 5701 5701 5700 5698 5695 5693 5690 5689 5688 5687 5686 5684 5683 5682 5681 5680 5681 5679 5677 5675 5674 5673 5672 5672 5672 5671 5670 5668 5667 5665 5663 5660 5658 5654
5695 5696 5697 5696 5694 5695 5696 5695 5693 5692 5692 5691 5689 5687 5686 5684 5682 5681 5679 5677 5674 5673 5672 5671 5670 5670 5671 5669 5667 5666 5664 5663 5662 5662 5662 5661 5660 5659 5657 5655 5652 5650 5648 5645
5683 5683 5684 5684 5685 5687 5688 5687 5686 5685 5684 5682 5680 5679 5677 5675 5672 5670 5669 5667 5665 5664 5663 5662 5661 5662 5662 5660 5658 5657 5657 5656 5653 5653 5652 5651 5650 5649 5648 5646 5643 5641 5640 5638
5681 5682 5682 5681 5680 5680 5680 5680 5679 5677 5676 5675 5674 5671 5667 5664 5662 5660 5659 5658 5655 5654 5654 5653 5653 5652 5652 5652 5650 5649 5648 5647 5645 5644 5643 5642 5641 5640 5640 5638 5636 5634 5632 5631
5677 5677 5677 5677 5676 5675 5673 5672 5671 5670 5668 5667 5663 5661 5658 5656 5655 5653 5651 5648 5646 5645 5646 5646 5643 5643 5644 5643 5641 5639 5639 5638 5637 5636 5634 5633 5632 5632 5631 5630 5628 5627 5624 5622
5670 5671 5670 5670 5670 5668 5666 5666 5665 5662 5661 5658 5655 5652 5649 5647 5645 5643 5641 5640 5640 5640 5639 5638 5636 5636 5635 5634 5631 5631 5631 5631 5629 5628 5626 5625 5624 5622 5621 5621 5620 5618 5617 5614
5662 5663 5663 5661 5661 5661 5660 5659 5657 5655 5653 5650 5647 5643 5641 5639 5638 5636 5633 5632 5633 5633 5632 5630 5630 5629 5628 5624 5622 5623 5623 5622 5621 5619 5618 5616 5614 5613 5612 5611 5609 5608 5608 5606
5655 5655 5654 5654 5652 5651 5652 5652 5650 5648 5645 5642 5640 5637 5634 5631 5629 5627 5627 5625 5626 5624 5624 5625 5624 5620 5618 5616 5618 5617 5616 5615 5613 5611 5610 5608 5606 5605 5604 5602 5600 5599 5599 5598
5647 5646 5646 5644 5643 5643 5643 5643 5642 5640 5637 5634 5631 5629 5626 5623 5623 5621 5619 5620 5620 5616 5616 5616 5613 5611 5609 5610 5611 5611 5610 5608 5606 5604 5602 5600 5599 5598 5596 5594 5592 5590 5589 5588
5638 5638 5637 5637 5637 5635 5633 5634 5634 5632 5630 5627 5625 5623 5620 5617 5616 5617 5615 5612 5611 5610 5610 5608 5605 5603 5601 5603 5604 5603 5602 5600 5598 5597 5596 5595 5593 5591 5589 5587 5585 5583 5581 5579
5632 5631 5630 5629 5627 5627 5627 5627 5625 5624 5622 5620 5618 5617 5615 5612 5610 5610 5608 5606 5604 5603 5603 5601 5599 5597 5596 5597 5597 5596 5595 5593 5592 5591 5589 5587 5586 5584 5583 5580 5578 5576 5574 5571
5625 5625 5624 5622 5622 5621 5621 5620 5618 5617 5615 5613 5611 5611 5609 5608 5605 5603 5601 5600 5599 5597 5597 5596 5594 5591 5591 5592 5591 5589 5588 5587 5586 5585 5583 5581 5579 5577 5575 5574 5571 5569 5567 5565
5620 5620 5618 5617 5618 5617 5616 5614 5612 5611 5610 5607 5605 5605 5604 5602 5600 5599 5597 5596 5594 5593 5591 5590 5589 5588 5586 5585 5584 5582 5581 5580 5579 5577 5576 5574 5572 5570 5569 5566 5564 5562 5559 5557